This is the latest recevied weather packets stored in our database for station/object KF4ERV-4. If no packets are shown the sender has not sent any weather packets the latest 10 day(s).
| Time | Temp. | Humidity | Pressure | Rain* | Wind** | Luminosity | Snow |
|---|---|---|---|---|---|---|---|
| 1777601086 | 11.67° C | 85% | 1017 hPa | 0 mm | - | - | - |
| 1777601059 | 11.67° C | 85% | 1016.9 hPa | 0 mm | - | - | - |
| 1777600992 | 11.67° C | 85% | 1016.9 hPa | 0 mm | - | - | - |
| 1777600699 | 12.22° C | 84% | 1016.3 hPa | 0 mm | - | - | - |
| 1777600481 | 12.22° C | 84% | 1016.3 hPa | 0 mm | - | - | - |
| 1777600409 | 12.22° C | 84% | 1016.2 hPa | 0 mm | - | - | - |
| 1777600184 | 12.22° C | 84% | 1016.2 hPa | 0 mm | - | - | - |
| 1777600119 | 12.22° C | 81% | 1016.4 hPa | 0 mm | - | - | - |
| 1777599888 | 12.22° C | 81% | 1016.4 hPa | 0 mm | - | - | - |
| 1777599539 | 12.22° C | 79% | 1016.6 hPa | 0 mm | - | - | - |
| 1777599283 | 12.22° C | 79% | 1016.6 hPa | 0 mm | - | - | - |
| 1777599250 | 12.22° C | 78% | 1016.8 hPa | 0 mm | - | - | - |
| 1777598986 | 12.22° C | 78% | 1016.8 hPa | 0 mm | - | - | - |
| 1777598961 | 12.22° C | 76% | 1016.8 hPa | 0 mm | - | - | - |
| 1777598689 | 12.22° C | 76% | 1016.8 hPa | 0 mm | - | - | - |
| 1777598380 | 12.78° C | 71% | 1016.8 hPa | 0 mm | - | - | - |
| 1777598085 | 12.78° C | 69% | 1017 hPa | 0 mm | - | - | - |
| 1777597787 | 12.78° C | 66% | 1016.9 hPa | 0 mm | - | - | - |
| 1777597509 | 12.78° C | 67% | 1016.9 hPa | 0 mm | - | - | - |
| 1777597478 | 12.78° C | 67% | 1016.9 hPa | 0 mm | - | - | - |
| 1777597219 | 12.78° C | 66% | 1016.8 hPa | 0 mm | - | - | - |
| 1777597181 | 12.78° C | 66% | 1016.8 hPa | 0 mm | - | - | - |
| 1777596929 | 12.78° C | 63% | 1016.6 hPa | 0 mm | - | - | - |
| 1777596885 | 12.78° C | 63% | 1016.6 hPa | 0 mm | - | - | - |
| 1777596639 | 13.33° C | 59% | 1016.2 hPa | 0 mm | - | - | - |
* Rain latest hour (hover to see other rain measurements)
** Current wind speed in m/s (hover to see current wind gust speed)